Other Public Products
Issued by NWS Grand Forks, ND

Home | Current Version | Previous Version | Graphics & Text | Print | Product List | Glossary On
Versions: 1 2 3 4 5 6 7 8 9 10 11 12 13 14 15 16 17 18 19 20 21 22 23 24 25 26 27 28 29 30 31 32 33 34 35 36 37 38 39 40 41 42 43 44 45 46 47 48 49 50
000
FPUS83 KFGF 201031
OPUFGF
PRAIRIE TO PINES WEATHER ROUNDUP
NATIONAL WEATHER SERVICE EASTERN NORTH DAKOTA/GRAND FORKS ND
500 AM CDT FRI OCT 20 2017

 **SATELLITE DATA USED TO AUGMENT SKY COVER AT AUTOMATED STATIONS**
 *****  WEATHER ACROSS EASTERN NORTH DAKOTA  *****

CITY           SKY/WX    TMP DP  RH WIND       PRES   REMARKS
GRAND FORKS    FAIR      49  45  86 SE7       29.61F
GRAND FORKS AF FAIR      43  41  93 S7        29.61F
GRAND CITY NWS NOT AVBL
BUXTON           N/A     49  48  95 SE9         N/A
DEVILS LAKE    FAIR      45  42  89 SE9       29.57F
FARGO          FAIR      57  49  74 S14       29.65F
WAHPETON ARPT  NOT AVBL
$$

 *****  WEATHER ACROSS CENTRAL AND WESTERN NORTH DAKOTA  *****

CITY           SKY/WX    TMP DP  RH WIND       PRES   REMARKS
JAMESTOWN      FAIR      50  45  83 S14       29.59F
BISMARCK       FAIR      46  41  82 E8        29.52F
MINOT          FAIR      45  36  70 CALM      29.48F
MINOT AFB      FAIR      38  32  79 CALM      29.47F
GARRISON         N/A     43  36  76 E5        29.49F
WILLISTON      FAIR      43  31  62 NE6       29.44F
DICKINSON      FAIR      41  30  65 SW7       29.47F
HETTINGER      FAIR      48  27  44 E5        29.52F
$$

 *****  OTHER OBSERVATIONS NORTHEAST NORTH DAKOTA  *****

CITY           SKY/WX    TMP DP  RH WIND       PRES   REMARKS
WALHALLA       FAIR     N/A N/A N/A SE5       29.59F
LANGDON        FAIR      43  39  87 SE8G14    29.59F
CAVALIER       FAIR      39  37  93 CALM      29.60F
GRAFTON        FAIR      41  39  93 SE8       29.62F
CANDO          FAIR      37  37 100 E5        29.57F
FORT TOTTEN      N/A     50  40  69 SE7       29.95
ROLLA          MIX PCPN  37  30  75 S6        29.56F
RUGBY          FAIR      43  39  87 NE6       29.51F
 ***** THE ABOVE OBSERVATIONS ARE NON NWS ARE NOT QUALITY
        CONTROLLED AND MAY MIS-REPORT RAIN FOR SNOW...
$$

 *****  OTHER OBSERVATIONS SOUTHEAST NORTH DAKOTA *****

CITY           SKY/WX    TMP DP  RH WIND       PRES   REMARKS
COOPERSTOWN    FAIR      46  43  87 S9        29.61F
VALLEY CITY      N/A     54  50  87 S16       29.62F
OAKES          NOT AVBL
GWINNER        SUNNY     59  48  67 S15       29.63F
SHEYENNE NWR     N/A     48  47  97 SE6       29.95S
BUFFALO          N/A     45  43  92 SE9         N/A
WYNDMERE       NOT AVBL
 ***** THE ABOVE OBSERVATIONS ARE NON NWS ARE NOT QUALITY
       CONTROLLED AND MAY MIS-REPORT RAIN FOR SNOW...
$$

  *****  WEATHER ACROSS NORTHERN MINNESOTA  *****

CITY           SKY/WX    TMP DP  RH WIND       PRES   REMARKS
FLAG ISLAND    FAIR      52  43  71 E5        29.68S
WARROAD        FAIR      48  43  81 S7        29.68F
ROSEAU         FAIR      50  45  81 S8        29.66F
HALLOCK        FAIR      46  43  87 SE10      29.61F
THF RVR FALLS  FAIR      50  44  80 SE9       29.67F
HALSTAD          N/A     52  46  80 S10         N/A
FOSSTON        FAIR      55  45  67 SE12      29.69F
BAUDETTE       FAIR      49  41  74 S9        29.71F
WASKISH        FAIR      52  45  76 SE7       29.73S
CROOKSTON      FAIR      52  46  82 S12       29.65S
$$
  *****  WEATHER ACROSS CENTRAL AND WEST MINNESOTA  *****

CITY           SKY/WX    TMP DP  RH WIND       PRES   REMARKS
BEMIDJI        FAIR      49  43  80 E3        29.73F
PARK RAPIDS    FAIR      48  43  82 SE8       29.75F
WADENA         FAIR      52  46  82 S5        29.75F
DETROIT LAKES  FAIR      52  46  82 SE9       29.73S
MOORHEAD       FAIR      55  48  76 SE15      29.66F
FERGUS FALLS   FAIR      55  48  76 SE16      29.72F
ELBOW LAKE     FAIR      54  49  84 E13       29.74S
MORRIS MN      FAIR      52  48  87 SE10      29.74F
STAPLES        FAIR      52  46  82 S7        29.78S
WHEATON        FAIR      54  46  76 SE15      29.72F
$$
  *****  WEATHER ELSEWHERE ACROSS MINNESOTA  *****

CITY           SKY/WX    TMP DP  RH WIND       PRES   REMARKS
DULUTH         FAIR      52  44  74 S7        29.86S
INTRNTL FALLS  FAIR      43  36  76 SE6       29.76F
ELY            FAIR      46  37  71 SE5       29.84F
CLOQUET        FAIR      52  41  66 SE3       29.86S
BRAINERD       FAIR      53  47  79 S9        29.81F
HIBBING        FAIR      34  32  92 CALM      29.84S
ALEXANDRIA     FAIR      56  49  77 S10       29.79F
SAINT CLOUD    FAIR      49  48  97 SE8       29.84F
MINNEAPOLIS    FAIR      53  50  89 SE7       29.89F
$$

  *****  WEATHER ACROSS SOUTH DAKOTA  *****

CITY           SKY/WX    TMP DP  RH WIND       PRES   REMARKS
SIOUX FALLS    FAIR      58  49  72 S12       29.83F
BROOKINGS      FAIR      54  48  80 S13       29.80F
WATERTOWN      FAIR      54  49  83 S13       29.75F
HURON          FAIR      58  48  69 S15G26    29.71F
SISSETON         N/A     66  48  52 S17       29.67
ABERDEEN       FAIR      56  49  77 S15       29.66F
MITCHELL       FAIR      57  47  69 S14       29.75F
PIERRE         FAIR      56  47  71 SE7       29.61F
MOBRIDGE       FAIR      58  49  72 SE12      29.54F
RAPID CITY     FAIR      49  28  44 SE6       29.60F
$$

  *****  SOME WEATHER IN NEARBY STATES *****

CITY           SKY/WX    TMP DP  RH WIND       PRES   REMARKS
GLASGOW MT     FAIR      45  30  55 E13       29.38F
GREAT FALLS MT FAIR      63  17  17 S16G26    29.37F
CHEYENNE WY    FAIR      47  32  56 W10       29.81F
SCOTTSBLUFF NE FAIR      44  32  62 E6        29.72F
OMAHA NE       MOCLDY    56  50  80 SE12      29.97F
DES MOINES IA  FAIR      57  52  83 S10       30.03S
DAVENPORT IA   FAIR      54  48  80 S6        30.12R
CHICAGO IL     FAIR      51  44  77 S3        30.15R
EAU CLAIRE WI  FAIR      42  39  89 CALM      29.96S
LA CROSSE WI   FAIR      58  50  75 S8        30.01R
$$

  *****  SOME NATIONAL WEATHER *****

CITY           SKY/WX    TMP DP  RH WIND       PRES   REMARKS
LA GUARDIA NY  FAIR      64  46  52 W13G20    30.10R
RALEIGH NC     FAIR      46  45  96 CALM      30.23R
ATLANTA GA     FAIR      49  45  86 NW6       30.26R
NEW ORLEANS LA FAIR      70  66  87 E6        30.12S
OKLAHOMA CITY  MOCLDY    58  53  84 SE10      30.05F
ALBUQUERQUE NM FAIR      51  49  92 E5        30.04F
SALT LAKE CITY FAIR      64  38  38 SE13      29.67F
LOS ANGELES CA MOCLDY    63  61  93 E3        29.90F
BOISE ID       FAIR      58  17  20 SE13      29.46F
SEATTLE WA     CLOUDY    48  45  89 SW16G22   29.55R
$$

*** WEATHER ACROSS MANITOBA...SASKATCHEWAN AND ONTARIO ***
                ***ONTARIO***

CITY           SKY/WX    TMP DP  RH WIND       PRES   REMARKS
GERALDTON      CLEAR     34  28  80 E3        29.88F
THUNDER BAY    CLEAR     34  32  93 W3        29.88S
SIOUX LOOKOUT  CLEAR     46  37  71 SE6       29.76R
TORONTO        CLEAR     48  36  61 W9        30.18R
BIG TROUT LK   CLOUDY    34  34 100 E8        29.87S
PICKLE LAKE    NOT AVBL
DRYDEN         CLEAR     50  39  66 S12       29.74S
KENORA         PTCLDY    50  39  66 S9        29.70F
$$
                *** MANITOBA***

CITY           SKY/WX    TMP DP  RH WIND       PRES   REMARKS
BRANDON        MOCLDY    43  34  70 E7        29.53F
DAUPHIN        CLEAR     37  32  81 CALM      29.51F
ISLAND LAKE    MOCLDY    37  34  87 E9        29.71R
PILOT MOUND      N/A     37  34  87 SE9         N/A
THE PAS        PTCLDY    37  34  87 E7        29.55F
THOMPSON       CLOUDY    34  32  93 E5        29.73R
WINNIPEG       CLEAR     50  39  66 S13       29.60F
LYNN LAKE      CLOUDY    32  32 100 SE7       29.67R
CHURCHILL      CLOUDY    32  27  80 SE10      29.95R WCI  24
GILLAM         CLOUDY    32  32 100 E7        29.83S
$$
                ***SASKATCHEWAN***

CITY           SKY/WX    TMP DP  RH WIND       PRES   REMARKS
ESTEVAN        PTCLDY    39  30  70 E9        29.45F
KINDERSLEY     CLOUDY    48  34  57 SE6       29.34F
LLOYDMINSTER   CLOUDY    43  36  75 S10       29.27F
PRINCE ALBERT  CLOUDY    39  32  75 E10       29.43F
REGINA         PTCLDY    45  30  57 E14       29.40F
YORKTON        CLEAR     39  30  70 S5        29.47F



USA.gov is the U.S. government's official web portal to all federal, state and local government web resources and services.